Location: Le Gr�zie
(43.6000°N, 13.5000°E)
Time: 16:33:18
(UTC+00:00)

COSMOS 2406 - Pass Details

Date: 09 April 2020
Orbit: 842 x 865 km, 71.0° (Epoch: 04 June)

Event Time Altitude Azimuth Distance (km) Brightness Sun altitude
Exits shadow 19:13:06 25° 107° (ESE) 1,651 4.1 -16.2°
Maximum altitude 19:13:26 25° 102° (ESE) 1,646 4.1 -16.2°
Drops below altitude 10° 19:17:58 10° 49° (NE) 2,483 5.4 -16.9°
Sets 19:20:49 0° 37° (NE) 3,427 6.3 -17.4°
